Clinton-Sherman, OK

6:59 AM CDT on September 26, 2017 (GMT -0500)
Clinton-Sherman

Weather History for KCSM - September, 2013

Change the Weather History Date:

Tuesday, September 3, 2013

  Actual Average Record
Temperature  
Mean Temperature 80 °F -  
Max Temperature 93 °F 89 °F 106 °F (2000)
Min Temperature 66 °F 65 °F 57 °F (2008)
Cooling Degree Days 14    
Growing Degree Days 30 (Base 50)    
Moisture  
Dew Point 54 °F    
Average Humidity 46    
Maximum Humidity 73    
Minimum Humidity 22    
Precipitation  
Precipitation 0.00 in - - ()
Sea Level Pressure  
Sea Level Pressure 30.01 in    
Wind  
Wind Speed 5 mph (East)    
Max Wind Speed 10 mph    
Max Gust Speed -    
Visibility 10 miles    
Events      
Averages and records for this station are not official NWS values.
T = Trace of Precipitation, MM = Missing Value Source: NWS Daily Summary

Daily Weather History Graph

Daily Weather History Graph

Search for Another Location

Airport or City:

Trip Planner

Search our weather history database for the weather conditions in past years. The results will help you decide how hot, cold, wet, or windy it might be!

Date:

Astronomy

Sep. 03, 2013 Rise Set
Actual Time 7:10 AM CDT 8:00 PM CDT
Civil Twilight 6:45 AM CDT 8:26 PM CDT
Nautical Twilight 6:14 AM CDT 8:56 PM CDT
Astronomical Twilight 5:42 AM CDT 9:28 PM CDT
Moon 5:28 AM CDT (9/3) 6:48 PM CDT (9/3)
Length of Visible Light 13h 41m
Length of Day
12h 49m
Waning Crescent, 3% of the Moon is Illuminated
Sep 3
Waning Crescent
Sep 5
New
Sep 12
First Quarter
Sep 19
Full
Sep 26
Last Quarter

Hourly Weather History & Observations

Time (CDT) Temp. Heat Index Dew Point Humidity Pressure Visibility Wind Dir Wind Speed Gust Speed Precip Events Conditions
12:53 AM 71.1 °F - 53.1 °F 53% 30.00 in 10.0 mi NE 4.6 mph - N/A   Clear
1:53 AM 70.0 °F - 54.0 °F 57% 30.00 in 10.0 mi NE 3.5 mph - N/A   Clear
2:53 AM 69.1 °F - 55.9 °F 63% 30.01 in 10.0 mi East 4.6 mph - N/A   Clear
3:53 AM 69.1 °F - 55.9 °F 63% 30.01 in 10.0 mi ESE 6.9 mph - N/A   Clear
4:53 AM 68.0 °F - 57.0 °F 68% 30.01 in 10.0 mi SE 4.6 mph - N/A   Clear
5:53 AM 66.9 °F - 57.0 °F 70% 30.02 in 10.0 mi ESE 5.8 mph - N/A   Clear
6:53 AM 66.9 °F - 57.9 °F 73% 30.04 in 10.0 mi ESE 4.6 mph - N/A   Clear
7:53 AM 68.0 °F - 59.0 °F 73% 30.05 in 10.0 mi ENE 3.5 mph - N/A   Clear
8:53 AM 73.0 °F - 59.0 °F 61% 30.07 in 10.0 mi Calm Calm - N/A   Clear
9:53 AM 77.0 °F - 59.0 °F 54% 30.08 in 10.0 mi East 6.9 mph - N/A   Clear
10:53 AM 80.1 °F 80.2 °F 55.9 °F 43% 30.08 in 10.0 mi East 5.8 mph - N/A   Clear
11:53 AM 82.0 °F 81.4 °F 55.0 °F 39% 30.07 in 10.0 mi Calm Calm - N/A   Clear
12:53 PM 84.9 °F 83.6 °F 55.0 °F 36% 30.05 in 10.0 mi Variable 3.5 mph - N/A   Clear
1:53 PM 90.0 °F 87.9 °F 55.0 °F 30% 30.03 in 10.0 mi North 4.6 mph - N/A   Clear
2:53 PM 90.0 °F - 52.0 °F 27% 30.01 in 10.0 mi North 6.9 mph - N/A   Clear
3:53 PM 91.9 °F - 48.9 °F 23% 29.98 in 10.0 mi East 5.8 mph - N/A   Clear
4:53 PM 93.0 °F - 48.9 °F 22% 29.97 in 10.0 mi North 5.8 mph - N/A   Clear
5:53 PM 91.9 °F - 48.0 °F 22% 29.96 in 10.0 mi East 6.9 mph - N/A   Clear
6:53 PM 91.0 °F - 46.9 °F 22% 29.96 in 10.0 mi East 8.1 mph - N/A   Clear
7:53 PM 84.9 °F - 48.9 °F 29% 29.96 in 10.0 mi East 6.9 mph - N/A   Clear
8:53 PM 81.0 °F - 50.0 °F 34% 29.97 in 10.0 mi East 8.1 mph - N/A   Clear
9:53 PM 78.1 °F - 51.1 °F 39% 30.00 in 10.0 mi ESE 10.4 mph - N/A   Clear
10:53 PM 75.9 °F - 53.1 °F 45% 30.01 in 10.0 mi ESE 9.2 mph - N/A   Clear
11:53 PM 75.0 °F - 55.0 °F 50% 30.01 in 10.0 mi ESE 10.4 mph - N/A   Clear